This demonstration page uses our WeatherBlox Daily Observations layout. Learn more.

Left ArrowRight Arrow

Hourly Observations for August 26, 2018

Temp ( °F °C ) Dew Point ( °F °C ) Humidity (%) Winds ( mph kmh ) Pressure ( in mb ) Visibility ( mi km ) Precip ( " mm )
12:59 am 00:59 Partly Cloudy 71 21.7 70 21.1 96 96 Calm 30.23 1024 9 14 0.00 0.00
1:59 am 01:59 Partly Cloudy 71 21.7 69 20.6 94 94 Calm 30.22 1023 8 13 0.00 0.00
2:59 am 02:59 Partly Cloudy 70 21.1 68 20 93 93 Calm 30.20 1023 7 11 0.00 0.00
3:59 am 03:59 Partly Cloudy 70 21.1 68 20 93 93 Calm 30.20 1023 7 11 0.00 0.00
4:59 am 04:59 Partly Cloudy 69 20.6 68 20 96 96 Calm 30.20 1023 7 11 0.00 0.00
5:59 am 05:59 Partly Cloudy 69 20.6 67 19.4 93 93 Calm 30.21 1023 7 11 0.00 0.00
6:59 am 06:59 Partly Cloudy 69 20.6 67 19.4 93 93 Calm 30.22 1023 7 11 0.00 0.00
7:59 am 07:59 Mostly Cloudy 74 23.3 71 21.7 91 91 Calm 30.23 1024 8 13 0.00 0.00
8:06 am 08:06 Mostly Cloudy 74 23.3 72 22.2 94 94 Calm 30.24 1024 8 13 0.00 0.00
8:59 am 08:59 Partly Cloudy 76 24.4 72 22.2 88 88 SW 3 6 30.24 1024 10 16 0.00 0.00
9:01 am 09:01 Mostly Cloudy 77 25 72 22.2 85 85 Calm 30.24 1024 10 16 0.00 0.00
9:42 am 09:42 Mostly Cloudy 77 25 71 21.7 82 82 W 6 9 30.24 1024 10 16 0.00 0.00
9:59 am 09:59 Mostly Cloudy 77 25 70 21.1 79 79 W 6 9 30.24 1024 10 16 0.00 0.00
10:59 am 10:59 Mostly Cloudy 80 26.7 69 20.6 69 69 VRB 3 6 30.23 1024 10 16 0.00 0.00
11:33 am 11:33 Mostly Cloudy 81 27.2 70 21.1 69 69 W 6 9 30.24 1024 10 16 0.00 0.00
11:59 am 11:59 Partly Cloudy 81 27.2 69 20.6 67 67 VRB 5 7 30.22 1023 10 16 0.00 0.00
12:59 pm 12:59 Partly Cloudy 83 28.3 66 18.9 57 57 W 7 11 30.20 1023 10 16 0.00 0.00
1:59 pm 13:59 Mostly Sunny 85 29.4 63 17.2 48 48 WNW 5 7 30.19 1023 10 16 0.00 0.00
2:59 pm 14:59 Mostly Sunny 85 29.4 65 18.3 51 51 VRB 5 7 30.17 1022 10 16 0.00 0.00
3:59 pm 15:59 Mostly Sunny 86 30 65 18.3 49 49 VRB 7 11 30.16 1021 10 16 0.00 0.00
4:59 pm 16:59 Mostly Sunny 86 30 69 20.6 57 57 VRB 3 6 30.15 1021 10 16 0.00 0.00
5:59 pm 17:59 Mostly Sunny 84 28.9 69 20.6 61 61 ENE 5 7 30.14 1021 10 16 0.00 0.00
6:59 pm 18:59 Mostly Sunny 83 28.3 66 18.9 57 57 SW 7 11 30.13 1020 10 16 0.00 0.00
7:59 pm 19:59 Mostly Clear 80 26.7 67 19.4 64 64 SW 6 9 30.13 1020 10 16 0.00 0.00
8:59 pm 20:59 Mostly Clear 78 25.6 67 19.4 69 69 SSW 5 7 30.13 1020 10 16 0.00 0.00
9:59 pm 21:59 Clear 76 24.4 68 20 77 77 SSW 3 6 30.15 1021 10 16 0.00 0.00
10:59 pm 22:59 Mostly Clear 77 25 67 19.4 71 71 SSW 5 7 30.14 1021 10 16 0.00 0.00
11:59 pm 23:59 Clear 76 24.4 68 20 77 77 S 5 7 30.14 1021 10 16 0.00 0.00

Powered by AerisWeather